| time (UTC) | temp C | wind direction | speed KPH | gust KPH | rain 1hr cm | rain 24hr cm | rain mn cm | humidity % | barometer mb |
| 20260510231306 | 25 | 213 | 3.2 | 8.0 | 0.00 | 0.03 | 0.00 | 92 | 1015.4 |
| 20260510230757 | 25 | 225 | 1.6 | 8.0 | 0.00 | 0.03 | 0.00 | 91 | 1015.4 |
| 20260510230251 | 25 | 185 | 1.6 | 11.3 | 0.00 | 0.03 | 0.00 | 91 | 1015.4 |
| 20260510224501 | 25 | 234 | 3.2 | 11.3 | 0.00 | 0.03 | 0.00 | 91 | 1015.4 |
| 20260510223948 | 25 | 220 | 1.6 | 9.7 | 0.00 | 0.03 | 0.00 | 90 | 1015.3 |
| 20260510223446 | 25 | 188 | 1.6 | 9.7 | 0.00 | 0.08 | 0.00 | 91 | 1015.3 |
| 20260510222946 | 25 | 267 | 3.2 | 9.7 | 0.00 | 0.08 | 0.00 | 91 | 1015.3 |
| 20260510222452 | 25 | 174 | 3.2 | 9.7 | 0.00 | 0.08 | 0.00 | 91 | 1015.3 |
| 20260510221952 | 25 | 132 | 3.2 | 9.7 | 0.00 | 0.08 | 0.00 | 92 | 1015.2 |
| 20260510221441 | 25 | 138 | 1.6 | 9.7 | 0.00 | 0.08 | 0.00 | 92 | 1015.2 |
| 20260510220921 | 25 | 226 | 3.2 | 11.3 | 0.00 | 0.08 | 0.00 | 92 | 1015.3 |
| 20260510213905 | 25 | 215 | 3.2 | 14.5 | 0.00 | 0.08 | 0.00 | 91 | 1015.5 |
| 20260510213402 | 25 | 205 | 3.2 | 14.5 | 0.00 | 0.08 | 0.00 | 90 | 1015.4 |
| 20260510212900 | 25 | 175 | 3.2 | 14.5 | 0.00 | 0.08 | 0.00 | 91 | 1015.4 |
| 20260510212405 | 25 | 229 | 4.8 | 14.5 | 0.00 | 0.08 | 0.00 | 90 | 1015.4 |
| 20260510211845 | 25 | 159 | 3.2 | 11.3 | 0.00 | 0.08 | 0.00 | 90 | 1015.5 |
| 20260510211346 | 26 | 169 | 3.2 | 11.3 | 0.00 | 0.08 | 0.00 | 90 | 1015.3 |
| 20260510210847 | 25 | 186 | 3.2 | 11.3 | 0.00 | 0.08 | 0.00 | 89 | 1015.5 |
| 20260510210348 | 25 | 178 | 3.2 | 11.3 | 0.00 | 0.08 | 0.00 | 90 | 1015.5 |
| 20260510205832 | 25 | 161 | 3.2 | 11.3 | 0.00 | 0.08 | 0.00 | 90 | 1015.5 |
| 20260510205342 | 25 | 229 | 3.2 | 11.3 | 0.00 | 0.08 | 0.00 | 91 | 1015.4 |
| 20260510204848 | 25 | 210 | 4.8 | 11.3 | 0.00 | 0.08 | 0.00 | 90 | 1015.4 |
| 20260510204334 | 26 | 191 | 4.8 | 11.3 | 0.00 | 0.08 | 0.00 | 89 | 1015.5 |
| 20260510203830 | 26 | 201 | 3.2 | 11.3 | 0.00 | 0.08 | 0.00 | 89 | 1015.5 |
| 20260510203331 | 26 | 227 | 3.2 | 11.3 | 0.00 | 0.08 | 0.00 | 89 | 1015.5 |
| 20260510202827 | 26 | 204 | 4.8 | 11.3 | 0.00 | 0.08 | 0.00 | 89 | 1015.5 |
| 20260510202314 | 26 | 207 | 4.8 | 12.9 | 0.00 | 0.08 | 0.00 | 88 | 1015.7 |
| 20260510201815 | 26 | 148 | 4.8 | 12.9 | 0.00 | 0.08 | 0.00 | 88 | 1015.6 |
| 20260510201310 | 26 | 240 | 4.8 | 12.9 | 0.00 | 0.08 | 0.00 | 87 | 1015.8 |
| 20260510200202 | 25 | 181 | 3.2 | 11.3 | 0.00 | 0.08 | 0.00 | 88 | 1015.8 |
| 20260510195658 | 25 | 219 | 3.2 | 11.3 | 0.00 | 0.08 | 0.00 | 90 | 1015.9 |
| 20260510194536 | 25 | 207 | 4.8 | 16.1 | 0.00 | 0.08 | 0.00 | 91 | 1015.8 |
| 20260510194021 | 25 | 173 | 4.8 | 16.1 | 0.00 | 0.08 | 0.00 | 90 | 1015.8 |
| 20260510193524 | 25 | 224 | 4.8 | 16.1 | 0.00 | 0.08 | 0.00 | 90 | 1015.8 |
| 20260510191800 | 25 | 223 | 4.8 | 11.3 | 0.00 | 0.08 | 0.00 | 90 | 1015.8 |
| 20260510190633 | 26 | 162 | 3.2 | 11.3 | 0.00 | 0.08 | 0.00 | 89 | 1015.8 |
| 20260510190137 | 26 | 241 | 3.2 | 11.3 | 0.00 | 0.08 | 0.00 | 90 | 1015.7 |
| 20260510185619 | 26 | 193 | 3.2 | 11.3 | 0.00 | 0.08 | 0.00 | 90 | 1015.8 |
| 20260510185103 | 26 | 211 | 4.8 | 16.1 | 0.00 | 0.08 | 0.00 | 90 | 1015.8 |
| 20260510184557 | 26 | 202 | 4.8 | 16.1 | 0.00 | 0.08 | 0.00 | 90 | 1015.9 |
| 20260510184040 | 26 | 133 | 6.4 | 16.1 | 0.00 | 0.08 | 0.00 | 91 | 1016.0 |
| 20260510182240 | 26 | 191 | 3.2 | 16.1 | 0.00 | 0.08 | 0.00 | 82 | 1016.0 |
| 20260510181735 | 26 | 123 | 3.2 | 16.1 | 0.00 | 0.08 | 0.00 | 81 | 1016.0 |
| 20260510181220 | 26 | 169 | 3.2 | 16.1 | 0.00 | 0.08 | 0.00 | 83 | 1016.1 |
| 20260510180725 | 27 | 178 | 3.2 | 16.1 | 0.00 | 0.08 | 0.00 | 85 | 1016.1 |
| 20260510180214 | 27 | 145 | 3.2 | 9.7 | 0.00 | 0.08 | 0.00 | 85 | 1016.1 |
| 20260510175701 | 27 | 109 | 3.2 | 9.7 | 0.00 | 0.08 | 0.00 | 84 | 1016.1 |
| 20260510175201 | 27 | 100 | 1.6 | 8.0 | 0.00 | 0.08 | 0.00 | 85 | 1016.1 |
| 20260510174646 | 26 | 132 | 1.6 | 9.7 | 0.00 | 0.08 | 0.00 | 86 | 1016.2 |
| 20260510174130 | 26 | 190 | 1.6 | 9.7 | 0.00 | 0.08 | 0.00 | 88 | 1016.3 |
| 20260510173634 | 26 | 157 | 3.2 | 9.7 | 0.00 | 0.08 | 0.00 | 88 | 1016.2 |
| 20260510173130 | 26 | 109 | 3.2 | 9.7 | 0.00 | 0.08 | 0.00 | 86 | 1016.2 |
| 20260510172614 | 26 | 128 | 1.6 | 8.0 | 0.00 | 0.08 | 0.00 | 88 | 1016.2 |
| 20260510172122 | 26 | 132 | 1.6 | 8.0 | 0.00 | 0.08 | 0.00 | 86 | 1016.3 |
| 20260510171626 | 26 | 98 | 1.6 | 8.0 | 0.00 | 0.08 | 0.00 | 87 | 1016.4 |
| 20260510170434 | 26 | 113 | 1.6 | 6.4 | 0.00 | 0.25 | 0.00 | 87 | 1016.6 |
| 20260510165923 | 26 | 93 | 1.6 | 9.7 | 0.00 | 0.33 | 0.00 | 87 | 1016.7 |
| 20260510165426 | 26 | 112 | 1.6 | 9.7 | 0.00 | 0.41 | 0.00 | 87 | 1016.8 |
| 20260510164922 | 26 | 136 | 3.2 | 9.7 | 0.00 | 0.61 | 0.00 | 88 | 1016.8 |
| 20260510162509 | 25 | 165 | 1.6 | 9.7 | 0.00 | 0.76 | 0.00 | 92 | 1016.7 |
| 20260510162005 | 25 | 70 | 3.2 | 9.7 | 0.00 | 0.91 | 0.00 | 92 | 1016.8 |
| 20260510161508 | 25 | 69 | 3.2 | 9.7 | 0.00 | 1.02 | 0.00 | 92 | 1016.7 |
| 20260510161008 | 25 | 244 | 3.2 | 9.7 | 0.00 | 1.07 | 0.00 | 93 | 1016.7 |
| 20260510155857 | 24 | 111 | 1.6 | 9.7 | 0.00 | 1.07 | 0.00 | 93 | 1016.9 |
| 20260510154732 | 23 | 150 | 1.6 | 9.7 | 0.00 | 1.07 | 0.00 | 94 | 1017.0 |
| 20260510154227 | 23 | 119 | 3.2 | 9.7 | 0.00 | 1.07 | 0.00 | 94 | 1016.9 |
| 20260510153710 | 23 | 90 | 3.2 | 9.7 | 0.00 | 1.07 | 0.00 | 94 | 1016.9 |
| 20260510153151 | 23 | 74 | 1.6 | 9.7 | 0.00 | 1.07 | 0.00 | 94 | 1016.9 |
| 20260510151425 | 24 | 128 | 3.2 | 11.3 | 0.00 | 1.14 | 0.00 | 94 | 1016.8 |
| 20260510150934 | 23 | 136 | 3.2 | 11.3 | 0.00 | 1.14 | 0.00 | 94 | 1016.9 |
| 20260510150436 | 23 | 128 | 3.2 | 9.7 | 0.00 | 1.14 | 0.00 | 94 | 1017.0 |
| 20260510145313 | 23 | 105 | 1.6 | 9.7 | 0.00 | 1.14 | 0.00 | 93 | 1017.0 |
| 20260510144803 | 23 | 49 | 3.2 | 9.7 | 0.00 | 1.14 | 0.00 | 93 | 1017.0 |
| 20260510144245 | 23 | 117 | 3.2 | 9.7 | 0.00 | 1.14 | 0.00 | 93 | 1017.0 |
| 20260510143751 | 23 | 101 | 3.2 | 9.7 | 0.00 | 1.14 | 0.00 | 93 | 1017.0 |
| 20260510143254 | 23 | 146 | 3.2 | 9.7 | 0.00 | 1.14 | 0.00 | 93 | 1016.9 |
| 20260510142756 | 23 | 98 | 1.6 | 9.7 | 0.00 | 1.14 | 0.00 | 94 | 1016.9 |
| 20260510142251 | 23 | 80 | 1.6 | 9.7 | 0.00 | 1.14 | 0.00 | 94 | 1017.0 |
| 20260510141755 | 23 | 75 | 1.6 | 9.7 | 0.00 | 1.14 | 0.00 | 94 | 1016.9 |
| 20260510141240 | 23 | 57 | 1.6 | 8.0 | 0.00 | 1.14 | 0.00 | 94 | 1016.9 |
| 20260510140725 | 23 | 88 | 1.6 | 4.8 | 0.00 | 1.14 | 0.00 | 94 | 1016.8 |
| 20260510140228 | 23 | 57 | 1.6 | 6.4 | 0.00 | 1.14 | 0.00 | 94 | 1016.8 |
| 20260510135714 | 23 | 84 | 1.6 | 6.4 | 0.00 | 1.14 | 0.00 | 94 | 1016.7 |
| 20260510135157 | 22 | 84 | 0.0 | 6.4 | 0.00 | 1.14 | 0.00 | 94 | 1016.7 |
| 20260510134646 | 22 | 145 | 0.0 | 6.4 | 0.00 | 1.14 | 0.00 | 94 | 1016.6 |
| 20260510134129 | 22 | 5 | 0.0 | 4.8 | 0.00 | 1.14 | 0.00 | 94 | 1016.6 |
| 20260510133636 | 21 | 34 | 0.0 | 4.8 | 0.00 | 1.14 | 0.00 | 94 | 1016.6 |
| 20260510132502 | 21 | 98 | 1.6 | 6.4 | 0.00 | 1.14 | 0.00 | 93 | 1016.6 |
| 20260510130710 | 22 | 68 | 1.6 | 9.7 | 0.00 | 1.14 | 0.00 | 94 | 1016.3 |
| 20260510130204 | 22 | 88 | 0.0 | 9.7 | 0.00 | 1.14 | 0.00 | 91 | 1016.4 |
| 20260510125645 | 21 | 70 | 0.0 | 6.4 | 0.00 | 1.14 | 0.00 | 90 | 1016.3 |
| 20260510124524 | 21 | 187 | 0.0 | 4.8 | 0.00 | 1.14 | 0.00 | 87 | 1016.1 |
| 20260510124016 | 20 | 43 | 0.0 | 4.8 | 0.00 | 1.14 | 0.00 | 87 | 1016.1 |
| 20260510123524 | 20 | 64 | 0.0 | 1.6 | 0.00 | 1.14 | 0.00 | 87 | 1016.1 |
| 20260510123010 | 20 | 301 | 0.0 | 1.6 | 0.00 | 1.14 | 0.00 | 87 | 1016.0 |
| 20260510122514 | 20 | 349 | 0.0 | 1.6 | 0.00 | 1.14 | 0.00 | 87 | 1015.9 |
| 20260510121955 | 20 | 349 | 0.0 | 4.8 | 0.00 | 1.14 | 0.00 | 87 | 1015.9 |
| 20260510121502 | 20 | 70 | 0.0 | 4.8 | 0.00 | 1.14 | 0.00 | 87 | 1015.8 |
| 20260510120947 | 20 | 37 | 0.0 | 4.8 | 0.00 | 1.14 | 0.00 | 87 | 1015.7 |
| 20260510115840 | 19 | 33 | 0.0 | 0.0 | 0.00 | 1.14 | 0.00 | 87 | 1015.7 |
| 20260510115340 | 19 | 44 | 0.0 | 0.0 | 0.00 | 1.14 | 0.00 | 88 | 1015.7 |
| 20260510114828 | 19 | 44 | 0.0 | 0.0 | 0.00 | 1.14 | 0.00 | 88 | 1015.6 |
| 20260510114311 | 19 | 346 | 0.0 | 1.6 | 0.00 | 1.14 | 0.00 | 87 | 1015.5 |
| 20260510113755 | 19 | 66 | 0.0 | 0.0 | 0.00 | 1.14 | 0.00 | 87 | 1015.3 |
| 20260510113236 | 19 | 336 | 0.0 | 0.0 | 0.00 | 1.14 | 0.00 | 87 | 1015.3 |
| 20260510112742 | 19 | 342 | 0.0 | 0.0 | 0.00 | 1.14 | 0.00 | 87 | 1015.1 |
| 20260510111635 | 19 | 0 | 0.0 | 0.0 | 0.00 | 1.14 | 0.00 | 88 | 1015.0 |
| 20260510111142 | 19 | 0 | 0.0 | 0.0 | 0.00 | 1.14 | 0.00 | 88 | 1015.0 |
| 20260510110642 | 19 | 0 | 0.0 | 0.0 | 0.00 | 1.14 | 0.00 | 88 | 1014.9 |
| 20260510110136 | 19 | 314 | 0.0 | 4.8 | 0.00 | 1.14 | 0.00 | 87 | 1014.7 |
| 20260510105643 | 19 | 5 | 1.6 | 4.8 | 0.00 | 1.14 | 0.00 | 87 | 1014.5 |
| 20260510104520 | 19 | 0 | 0.0 | 3.2 | 0.00 | 1.14 | 0.00 | 88 | 1014.5 |
| 20260510104021 | 19 | 0 | 0.0 | 1.6 | 0.00 | 1.14 | 0.00 | 88 | 1014.3 |
| 20260510103525 | 19 | 349 | 0.0 | 1.6 | 0.00 | 1.14 | 0.00 | 88 | 1014.3 |
| 20260510102350 | 19 | 355 | 0.0 | 0.0 | 0.00 | 1.14 | 0.00 | 88 | 1014.2 |
| 20260510101847 | 19 | 22 | 0.0 | 0.0 | 0.00 | 1.14 | 0.00 | 87 | 1014.2 |
| 20260510100730 | 19 | 34 | 0.0 | 0.0 | 0.00 | 1.14 | 0.00 | 87 | 1014.1 |
| 20260510100215 | 19 | 48 | 0.0 | 0.0 | 0.00 | 1.14 | 0.00 | 88 | 1014.1 |
| 20260510095720 | 19 | 55 | 0.0 | 0.0 | 0.00 | 1.14 | 0.00 | 88 | 1014.0 |
| 20260510095202 | 19 | 55 | 0.0 | 0.0 | 0.00 | 1.14 | 0.00 | 88 | 1014.0 |
| 20260510094040 | 19 | 38 | 0.0 | 0.0 | 0.00 | 1.14 | 0.00 | 87 | 1013.8 |
| 20260510093546 | 19 | 355 | 0.0 | 0.0 | 0.00 | 1.14 | 0.00 | 88 | 1013.7 |
| 20260510093030 | 19 | 355 | 0.0 | 0.0 | 0.00 | 1.14 | 0.00 | 88 | 1013.7 |
| 20260510092535 | 19 | 355 | 0.0 | 0.0 | 0.00 | 1.14 | 0.00 | 88 | 1013.8 |
| 20260510092031 | 19 | 355 | 0.0 | 0.0 | 0.00 | 1.17 | 0.00 | 88 | 1013.7 |
| 20260510090233 | 19 | 26 | 0.0 | 0.0 | 0.00 | 1.19 | 0.00 | 87 | 1013.3 |
| 20260510085727 | 19 | 26 | 0.0 | 0.0 | 0.00 | 1.19 | 0.00 | 87 | 1013.4 |
| 20260510085210 | 19 | 26 | 0.0 | 0.0 | 0.00 | 1.19 | 0.00 | 87 | 1013.4 |
| 20260510084659 | 19 | 26 | 0.0 | 0.0 | 0.00 | 1.19 | 0.00 | 87 | 1013.3 |
| 20260510084142 | 19 | 26 | 0.0 | 0.0 | 0.00 | 1.19 | 0.00 | 88 | 1013.1 |
| 20260510083634 | 19 | 26 | 0.0 | 0.0 | 0.00 | 1.19 | 0.00 | 88 | 1013.1 |
| 20260510083126 | 18 | 26 | 0.0 | 0.0 | 0.00 | 1.19 | 0.00 | 88 | 1013.1 |
| 20260510082622 | 18 | 0 | 0.0 | 0.0 | 0.00 | 1.19 | 0.00 | 88 | 1013.0 |
| 20260510082117 | 18 | 36 | 0.0 | 0.0 | 0.00 | 1.19 | 0.00 | 88 | 1013.2 |
| 20260510081625 | 18 | 36 | 0.0 | 0.0 | 0.00 | 1.19 | 0.00 | 88 | 1013.2 |
| 20260510081115 | 18 | 36 | 0.0 | 0.0 | 0.00 | 1.19 | 0.00 | 88 | 1013.3 |
| 20260510080559 | 18 | 36 | 0.0 | 0.0 | 0.00 | 1.19 | 0.00 | 88 | 1013.2 |
| 20260510075555 | 18 | 36 | 0.0 | 0.0 | 0.00 | 1.22 | 0.00 | 88 | 1013.3 |
| 20260510075048 | 18 | 36 | 0.0 | 0.0 | 0.00 | 1.22 | 0.00 | 88 | 1013.3 |
| 20260510073923 | 18 | 36 | 0.0 | 0.0 | 0.00 | 1.22 | 0.00 | 88 | 1013.4 |
| 20260510073432 | 18 | 36 | 0.0 | 0.0 | 0.00 | 1.24 | 0.00 | 88 | 1013.3 |
| 20260510072915 | 18 | 36 | 0.0 | 0.0 | 0.00 | 1.24 | 0.00 | 88 | 1013.2 |
| 20260510072409 | 18 | 36 | 0.0 | 0.0 | 0.00 | 1.24 | 0.00 | 88 | 1013.2 |
| 20260510071851 | 18 | 36 | 0.0 | 0.0 | 0.00 | 1.24 | 0.00 | 88 | 1013.1 |
| 20260510071337 | 18 | 36 | 0.0 | 0.0 | 0.00 | 1.24 | 0.00 | 88 | 1013.1 |
| 20260510070835 | 18 | 36 | 0.0 | 0.0 | 0.00 | 1.24 | 0.00 | 88 | 1013.2 |
| 20260510070339 | 18 | 36 | 0.0 | 0.0 | 0.00 | 1.24 | 0.00 | 88 | 1013.2 |
| 20260510065224 | 18 | 36 | 0.0 | 0.0 | 0.00 | 1.24 | 0.00 | 88 | 1013.2 |
| 20260510064715 | 19 | 35 | 0.0 | 0.0 | 0.00 | 1.24 | 0.00 | 88 | 1013.3 |
| 20260510064155 | 19 | 36 | 0.0 | 0.0 | 0.00 | 1.24 | 0.00 | 88 | 1013.3 |
| 20260510063033 | 19 | 36 | 0.0 | 0.0 | 0.00 | 1.24 | 0.00 | 88 | 1013.4 |
| 20260510062542 | 19 | 36 | 0.0 | 0.0 | 0.00 | 1.24 | 0.00 | 88 | 1013.3 |
| 20260510060147 | 19 | 36 | 0.0 | 0.0 | 0.00 | 1.24 | 0.00 | 88 | 1013.2 |
| 20260510055650 | 19 | 36 | 0.0 | 0.0 | 0.00 | 1.24 | 0.00 | 88 | 1013.2 |
| 20260510054515 | 19 | 5 | 0.0 | 0.0 | 0.00 | 1.24 | 0.00 | 88 | 1013.2 |
| 20260510054011 | 19 | 5 | 0.0 | 0.0 | 0.00 | 1.24 | 0.00 | 88 | 1013.4 |
| 20260510053520 | 19 | 5 | 0.0 | 0.0 | 0.00 | 1.24 | 0.00 | 88 | 1013.3 |
| 20260510053019 | 19 | 5 | 0.0 | 0.0 | 0.00 | 1.24 | 0.00 | 88 | 1013.4 |
| 20260510051916 | 19 | 5 | 0.0 | 0.0 | 0.00 | 1.24 | 0.00 | 88 | 1013.5 |
| 20260510051401 | 19 | 5 | 0.0 | 0.0 | 0.00 | 1.24 | 0.00 | 88 | 1013.5 |
| 20260510050902 | 20 | 5 | 0.0 | 0.0 | 0.00 | 1.24 | 0.00 | 88 | 1013.5 |
| 20260510050354 | 20 | 5 | 0.0 | 0.0 | 0.00 | 1.24 | 0.00 | 88 | 1013.7 |
| 20260510045843 | 20 | 5 | 0.0 | 0.0 | 0.00 | 1.24 | 1.27 | 88 | 1013.6 |
| 20260510044702 | 20 | 5 | 0.0 | 0.0 | 0.00 | 1.24 | 1.27 | 88 | 1013.9 |
| 20260510044145 | 20 | 5 | 0.0 | 0.0 | 0.00 | 1.24 | 1.27 | 88 | 1013.8 |
| 20260510043627 | 20 | 5 | 0.0 | 0.0 | 0.00 | 1.24 | 1.27 | 88 | 1013.9 |
| 20260510043121 | 20 | 5 | 0.0 | 0.0 | 0.00 | 1.24 | 1.27 | 88 | 1014.0 |
| 20260510042620 | 20 | 5 | 0.0 | 0.0 | 0.00 | 1.24 | 1.27 | 88 | 1014.0 |
| 20260510042104 | 20 | 5 | 0.0 | 0.0 | 0.00 | 1.24 | 1.27 | 88 | 1014.2 |
| 20260510041555 | 20 | 5 | 0.0 | 0.0 | 0.00 | 1.24 | 1.27 | 88 | 1014.0 |
| 20260510041058 | 20 | 5 | 0.0 | 0.0 | 0.00 | 1.24 | 1.27 | 88 | 1013.8 |
| 20260510040553 | 20 | 5 | 0.0 | 1.6 | 0.00 | 1.24 | 1.27 | 88 | 1013.9 |
| 20260510040047 | 20 | 5 | 0.0 | 1.6 | 0.00 | 1.24 | 1.27 | 88 | 1014.0 |
| 20260510035529 | 20 | 5 | 0.0 | 1.6 | 0.00 | 1.24 | 1.27 | 88 | 1014.0 |
| 20260510035022 | 20 | 65 | 0.0 | 0.0 | 0.00 | 1.24 | 1.27 | 88 | 1014.0 |
| 20260510034512 | 20 | 65 | 0.0 | 0.0 | 0.00 | 1.24 | 1.27 | 88 | 1014.0 |
| 20260510034022 | 20 | 65 | 0.0 | 0.0 | 0.00 | 1.24 | 1.27 | 88 | 1014.1 |
| 20260510033518 | 20 | 65 | 0.0 | 0.0 | 0.00 | 1.24 | 1.27 | 89 | 1014.2 |
| 20260510033014 | 20 | 65 | 0.0 | 0.0 | 0.00 | 1.24 | 1.27 | 89 | 1014.4 |
| 20260510032457 | 20 | 65 | 0.0 | 0.0 | 0.00 | 1.27 | 1.27 | 89 | 1014.1 |
| 20260510031328 | 20 | 65 | 0.0 | 3.2 | 0.00 | 1.27 | 1.27 | 90 | 1012.8 |
| 20260510030207 | 20 | 326 | 0.0 | 3.2 | 0.00 | 1.32 | 1.27 | 90 | 1012.8 |
| 20260510025704 | 20 | 298 | 0.0 | 1.6 | 0.00 | 1.35 | 1.27 | 91 | 1013.0 |
| 20260510025212 | 21 | 28 | 0.0 | 1.6 | 0.00 | 1.37 | 1.27 | 91 | 1012.7 |
| 20260510024707 | 21 | 122 | 0.0 | 0.0 | 0.00 | 1.40 | 1.27 | 91 | 1013.1 |
| 20260510024207 | 21 | 122 | 0.0 | 0.0 | 0.00 | 1.40 | 1.27 | 91 | 1013.2 |
| 20260510023658 | 21 | 74 | 0.0 | 11.3 | 0.00 | 1.40 | 1.24 | 91 | 1013.1 |
| 20260510023146 | 21 | 54 | 0.0 | 11.3 | 0.00 | 1.40 | 1.24 | 91 | 1013.2 |
| 20260510022627 | 21 | 86 | 1.6 | 11.3 | 0.00 | 1.40 | 1.24 | 91 | 1013.2 |
| 20260510022127 | 21 | 102 | 0.0 | 4.8 | 0.00 | 1.40 | 1.24 | 90 | 1013.2 |
| 20260510020956 | 21 | 198 | 0.0 | 12.9 | 0.00 | 1.40 | 1.24 | 90 | 1013.6 |
| 20260510020456 | 21 | 121 | 1.6 | 12.9 | 0.00 | 1.40 | 1.24 | 90 | 1013.8 |
| 20260510015947 | 21 | 145 | 1.6 | 12.9 | 0.00 | 1.40 | 1.24 | 89 | 1013.9 |
| 20260510014759 | 20 | 163 | 1.6 | 6.4 | 0.00 | 1.40 | 1.24 | 88 | 1013.9 |
| 20260510014309 | 20 | 216 | 0.0 | 4.8 | 0.00 | 1.40 | 1.24 | 88 | 1014.0 |
| 20260510013154 | 20 | 36 | 0.0 | 0.0 | 0.00 | 1.40 | 1.24 | 88 | 1013.9 |
| 20260510012649 | 20 | 36 | 0.0 | 0.0 | 0.00 | 1.40 | 1.24 | 88 | 1013.7 |
| 20260510012147 | 20 | 36 | 0.0 | 0.0 | 0.00 | 1.40 | 1.24 | 89 | 1013.7 |
| 20260510011037 | 20 | 36 | 0.0 | 0.0 | 0.00 | 1.40 | 1.24 | 89 | 1013.6 |
| 20260510010533 | 20 | 36 | 0.0 | 0.0 | 0.00 | 1.40 | 1.24 | 89 | 1013.4 |
| 20260510010017 | 20 | 36 | 0.0 | 0.0 | 0.00 | 1.42 | 1.24 | 89 | 1013.3 |
| 20260510005505 | 20 | 36 | 0.0 | 0.0 | 0.00 | 1.42 | 1.24 | 89 | 1013.3 |
| 20260510005006 | 20 | 36 | 0.0 | 0.0 | 0.00 | 1.45 | 1.24 | 89 | 1013.3 |
| 20260510003857 | 20 | 36 | 0.0 | 0.0 | 0.00 | 1.50 | 1.24 | 90 | 1013.2 |
| 20260510003401 | 21 | 36 | 0.0 | 0.0 | 0.00 | 1.47 | 1.24 | 90 | 1013.0 |
| 20260510002855 | 21 | 36 | 0.0 | 0.0 | 0.00 | 1.47 | 1.22 | 90 | 1012.7 |
| 20260510002354 | 21 | 36 | 0.0 | 0.0 | 0.00 | 1.47 | 1.22 | 90 | 1012.6 |
| 20260510001900 | 21 | 36 | 0.0 | 0.0 | 0.00 | 1.47 | 1.22 | 90 | 1012.6 |
| 20260510001402 | 21 | 36 | 0.0 | 0.0 | 0.00 | 1.47 | 1.22 | 90 | 1012.6 |
| 20260510000907 | 21 | 36 | 0.0 | 0.0 | 0.00 | 1.47 | 1.22 | 91 | 1012.7 |
| 20260510000356 | 21 | 36 | 0.0 | 0.0 | 0.00 | 1.47 | 1.22 | 91 | 1012.9 |
| 20260509235852 | 21 | 28 | 0.0 | 0.0 | 0.00 | 1.47 | 1.22 | 91 | 1013.2 |
| 20260509235342 | 21 | 28 | 0.0 | 0.0 | 0.00 | 1.47 | 1.22 | 91 | 1012.9 |
| 20260509234824 | 21 | 28 | 0.0 | 0.0 | 0.00 | 1.47 | 1.22 | 91 | 1013.0 |
| 20260509234312 | 21 | 144 | 0.0 | 0.0 | 0.00 | 1.47 | 1.22 | 92 | 1013.2 |
| 20260509233812 | 21 | 144 | 0.0 | 0.0 | 0.00 | 1.47 | 1.22 | 92 | 1013.2 |
| 20260509233318 | 21 | 144 | 0.0 | 0.0 | 0.00 | 1.47 | 1.22 | 93 | 1013.1 |
| 20260509232812 | 21 | 144 | 0.0 | 0.0 | 0.00 | 1.47 | 1.22 | 93 | 1012.9 |
| 20260509232306 | 21 | 144 | 0.0 | 0.0 | 0.00 | 1.47 | 1.22 | 93 | 1013.0 |
| 20260509231802 | 21 | 144 | 0.0 | 0.0 | 0.00 | 1.47 | 1.22 | 94 | 1013.0 |